STARLINK-2188 (48563 NORAD) Tracking and Keplerian Element Data

This shows tracking and keplerian element data for the satellite.

Feedback or suggestion? Click here.




ElementValue
Catalog48563
NameSTARLINK-2188
Epoch Orbit1140
Epoch Day210.81629726
Epoch Year2021
RAAN130.8104
Inclination53.0567
Eccentricity0.0002019
Argument of Perigee83.9879
Mean Anonmoly276.134
Mean Motion15.06399228
Decay Rate-1.56E-06
L11 48563U 21041L 21210.81629726 -.00000156 00000-0 84723-5 0 9993
L22 48563 53.0567 130.8104 0002019 83.9879 276.1340 15.06399228 11401

Live tracking and technical data element details for STARLINK-2188 (NORAD 48563). STARLINK-2188 can be tracked NOW for your location showing map with azimuth and elevation plus other details from your city location.

Track the satellite on the map from your city or location and see movement details for azimuth, elevation, latitude, longitude, range, height, and movement on the map or in text.







IsCatalogInMostPopularTable: catalog: 48563, numindb: 20
Update: records affected: 1



GetName: 48563 STARLINK-2188

Hit Count: updated at: Sat, 31 Jul 2021 14:42:02 GMT